DMSP 5D-3 F18 DEB

Satellite information

Favourite Embed

Satellite Type and Status

DEBRISIN ORBIT

Key statistics

Satellite DMSP 5D-3 F18 DEB at a glance.

Uptime

5682

Days in orbit

Revolutions

≈ 14.3

Per day

Orbit

SSO

Sun Synchronous Orbit

Inclination

98.6

Latest

Satellite identification and parameters

Extended collection of information and parameters for DMSP 5D-3 F18 DEB.

Object identification

Identified? True

Debris? True

Object name: DMSP 5D-3 F18 DEB

International designator: 2009-057D

Object number (NORAD): 35954

Object ID (CCSDS): 35954

Country: UNITED STATES OF AMERICA (US)

Current information (Y/N): Y

RCS size: SMALL

Orbital parameters

Period: 100.953 minutes

Inclination: 98.6088 deg

SMA: 7181.906 km

Apoapsis: 806.65 km

Periapsis: 800.893 km

RAAN: 119.4778 deg

Eccentricy: 0.0004008

Argument of periapsis: 191.0322 deg

Mean anomaly: 320.7579 deg

Mean motion: 14.26406053 rev/day

Mean motion (dot): 0.00002516 rev/day2

B* drag term: 0.001064 1/REarth

Two-line elements (TLE)

Creation date: May 9, 2025, 2:46 a.m.

Reference frame: TEME

Reference center: EARTH

Epoch: May 8, 2025, 10:42 a.m. UTC

TLE line 0: 0 DMSP 5D-3 F18 DEB

TLE line 1: 1 35954U 09057D 25128.44619560 .00002516 00000-0 10640-2 0 9997

TLE line 2: 2 35954 98.6088 119.4778 0004008 191.0322 320.7579 14.26406053804583

Live tracking on map

Real-time ground track for satellite DMSP 5D-3 F18 DEB.

In-orbit conjunctions

A list of the most updated potential collisions computed for object DMSP 5D-3 F18 DEB.

Target Orbit TCA Probability of collision Miss distance Type
CZ-4 DEB SSO 2024-07-22 15:57:11 0.0001173402 329.0 (m) DEBRIS

Associated space launch

The Defence Metoerological Satellite Program (DMSP) monitors meteorological, oceanographic and solar-terrestrial physics for the Department of Defence, managed by Air Force Space Command and operated by NOAA.

DMSP 5D-3 F18 DEB was lifted into orbit during the mission ‘Atlas V 401 | DMSP-5D3 F18 (USA-210)’, on board a Atlas V 401 space rocket.

The launch took place on Oct. 18, 2009, 4:12 p.m. from Space Launch Complex 3E.

For more information about the launch, click the button.

Launch to space Atlas V 401 | DMSP-5D3 F18 (USA-210)
Atlas V 401 | DMSP-5D3 F18 (USA-210)

Agency: N/A

Status: Launch Successful

Launch date: Oct. 18, 2009, 4:12 p.m. UTC

Rocket: Atlas V 401

Launch pad: Space Launch Complex 3E

Location: Vandenberg SFB, CA, USA

...

Latest news about this satellite

There are no fresh news available about this satellite. Check back as we update our databases every day.


Newsletter sign-up

Weekly statistics, charts and insights to help you stay on top of the space industry.